[[{"header":{"parameterUnit":"m.s-1","parameterCategory":1,"la1":30.2991,"la2":30.254,"lo1":-89.0895,"lo2":-89.0444,"dy":0.0017,"dx":0.0017,"nx":28,"ny":28,"refTime":"2024-04-23T09:00:00:Z","depth":0,"parameterNumber":2,"parameterNumberName":"U-component_of_WINDS"},"data":[0,0,0,0,0,0,0,0,0,0,0,0,0,0,0,0,0,0,0,0,0,0,0,0,0,0,0,0,0,0,0,0,0,0,0,0,0,0,0,0,0,0,0,0,0,0,0,0,0,0,0,0,0,0,0,0,0,0,-4.3387,-4.3387,0,-4.3414,-4.3415,-4.3415,-4.3369,-4.3367,-4.3366,-4.3364,-4.3389,-4.3391,-4.3393,0,0,0,0,0,0,0,0,0,0,0,0,0,-4.3292,-4.3294,-4.3387,-4.3387,-4.3388,-4.3414,-4.3415,-4.3415,-4.3369,-4.3367,-4.3365,-4.3364,-4.3388,-4.3391,-4.3393,0,0,0,0,0,0,0,0,0,0,0,0,0,-4.3328,-4.3295,-4.3387,-4.3368,-4.3367,-4.3414,-4.3415,-4.3415,-4.337,-4.3367,-4.3365,-4.3363,-4.3387,-4.3391,-4.3394,-4.346,0,0,-4.3403,-4.3405,0,0,0,0,0,0,0,0,-4.3326,-4.3331,-4.3371,-4.3369,-4.3368,-4.3386,-4.339,-4.343,-4.337,-4.3368,-4.3364,-4.3362,-4.339,-4.3392,-4.3403,-4.3461,-4.3462,-4.3404,-4.3406,-4.3407,-4.3408,0,0,0,0,0,0,0,-4.3324,-4.333,-4.3398,-4.3371,-4.337,-4.3357,-4.336,-4.3398,-4.3392,-4.3368,-4.3365,-4.3369,-4.3388,-4.34,-4.3403,-4.3463,-4.3404,-4.3406,-4.3408,-4.341,-4.3577,-4.3579,0,0,0,0,0,0,-4.3324,-4.3328,-4.3397,-4.3399,-4.3341,-4.3361,-4.3364,-4.3382,-4.3391,-4.339,-4.3371,-4.3367,-4.3395,-4.3399,-4.3404,-4.3481,-4.3407,-4.341,-4.3412,-4.3574,-4.3577,-4.358,0,0,0,0,0,0,-4.3322,-4.333,-4.3396,-4.3363,-4.337,-4.3365,-4.3387,-4.3384,-4.3395,-4.3393,-4.3392,-4.3384,-4.3394,-4.3399,-4.3446,-4.3481,-4.3411,-4.3414,-4.3571,-4.3575,-4.3579,-4.3636,0,0,0,0,0,0,-4.3319,-4.333,-4.3355,-4.3364,-4.3372,-4.3439,-4.3389,-4.3386,-4.3401,-4.3396,-4.3405,-4.3404,-4.3392,-4.3442,-4.345,-4.3484,-4.3417,-4.3568,-4.3573,-4.3577,-4.3631,-4.3642,-4.3651,0,0,0,0,0,-4.3316,-4.337,-4.3357,-4.3365,-4.3404,-4.3441,-4.3446,-4.3432,-4.3404,-4.3429,-4.3428,-4.3404,-4.3477,-4.3447,-4.3455,-4.3491,-4.3566,-4.3572,-4.3577,-4.3627,-4.364,-4.365,0,0,0,0,0,0,-4.3364,-4.337,-4.3356,-4.3414,-4.3428,-4.3433,-4.3464,-4.3446,-4.3467,-4.3461,-4.3442,-4.3445,-4.3495,-4.3499,-4.3466,-4.3556,-4.3516,-4.3524,-4.3552,-4.3564,-4.3573,-4.357,-4.3419,0,0,0,0,0,-4.3382,-4.3413,-4.3416,-4.3467,-4.3475,-4.3469,-4.3484,-4.3473,-4.3486,-4.3491,-4.3493,-4.3505,-4.3531,-4.3548,-4.3572,-4.3633,-4.3633,-4.3662,-4.3672,-4.3679,-4.3685,-4.3717,-4.3729,-4.3599,-4.3599,-4.3599,0,0,-4.3418,-4.3425,-4.3445,-4.3477,-4.3486,-4.3517,-4.3474,-4.3508,-4.3531,-4.3495,-4.354,-4.3543,-4.3555,-4.361,-4.3634,-4.3614,-4.3722,-4.3687,-4.3693,-4.3694,-4.3724,-4.3737,-4.3748,-4.3603,-4.3602,-4.3601,0,0,-4.3499,-4.3508,-4.3551,-4.3562,-4.3577,-4.3573,-4.3584,-4.3593,-4.3593,-4.3639,-4.3613,-4.3639,-4.3684,-4.3694,-4.3705,-4.3793,-4.377,-4.3801,-4.385,-4.3882,-4.3892,-4.3901,-4.393,-4.3941,-4.3808,-4.3808,-4.3808,0,-4.3541,-4.3587,-4.3575,-4.3612,-4.3626,-4.3599,-4.3642,-4.3652,-4.3674,-4.3684,-4.3662,-4.3718,-4.3725,-4.3781,-4.3803,-4.3813,-4.3823,-4.3798,-4.3892,-4.3901,-4.3909,-4.3936,-4.3948,-4.3811,-4.3811,-4.3811,-4.381,0,-4.3638,-4.3671,-4.3704,-4.3727,-4.3745,-4.3785,-4.3778,-4.3799,-4.3787,-4.3785,-4.3831,-4.3839,-4.3863,-4.3877,-4.3865,-4.3931,-4.3918,-4.3895,-4.3854,-4.3925,-4.395,-4.3961,-4.3816,-4.3815,-4.3814,-4.3813,0,0,-4.3746,-4.3764,-4.3776,-4.3786,-4.3802,-4.3826,-4.3866,-4.3891,-4.3908,-4.3925,-4.3956,-4.3996,-4.3974,-4.3987,-4.3976,-4.4004,-4.4072,-4.3977,-4.3977,-4.3992,-4.4144,-4.4159,-4.4172,-4.4059,-4.4061,-4.4062,-4.4142,0,-4.3824,-4.3892,-4.3884,-4.3948,-4.3978,-4.3953,-4.3987,-4.4,-4.4,-4.4025,-4.4025,-4.4053,-4.4024,-4.4031,-4.4058,-4.4058,-4.4101,-4.4052,-4.4085,-4.4086,-4.4079,-4.4186,-4.4202,-4.4277,-4.4152,-4.4154,-4.4155,0,-4.3924,-4.3946,-4.4014,-4.4026,-4.4038,-4.4069,-4.4092,-4.4116,-4.4131,-4.4129,-4.4145,-4.413,-4.4168,-4.413,-4.4181,-4.4148,-4.4162,-4.4164,-4.4167,-4.4166,-4.4122,-4.4186,-4.43,-4.431,-4.4171,-4.417,-4.4169,0,-4.3993,-4.404,-4.4087,-4.4097,-4.4112,-4.4134,-4.4142,-4.4154,-4.417,-4.4191,-4.4201,-4.4225,-4.4238,-4.4257,-4.4248,-4.4222,-4.4301,-4.4262,-4.4299,-4.4299,-4.4314,-4.4312,-4.4429,-4.4328,-4.4328,-4.4328,-4.4327,0,-4.408,-4.4122,-4.4118,-4.4146,-4.4192,-4.4183,-4.4228,-4.4233,-4.4245,-4.4273,-4.4254,-4.428,-4.427,-4.4295,-4.429,-4.4332,-4.4339,-4.4337,-4.4335,-4.4337,-4.4337,-4.4343,-4.4337,-4.4331,-4.433,-4.4329,-4.4329,0,-4.4163,-4.4163,-4.4211,-4.4224,-4.4228,-4.4261,-4.4271,-4.4297,-4.4297,-4.4333,-4.4341,-4.4341,-4.437,-4.4365,-4.4398,-4.4394,-4.4447,-4.4439,-4.4442,-4.4439,-4.4475,-4.4471,-4.4597,-4.4613,-4.4504,-4.4505,-4.4506,0,-4.4217,-4.4249,-4.4266,-4.4284,-4.4293,-4.4323,-4.434,-4.4332,-4.4351,-4.4371,-4.4394,-4.4423,-4.4444,-4.4493,-4.4495,-4.452,-4.4511,-4.4554,-4.4514,-4.4516,-4.4508,-4.4505,-4.4508,-4.456,-4.4561,-4.4562,-4.4563,0,-4.4312,-4.4311,-4.4337,-4.4363,-4.4384,-4.4404,-4.4422,-4.4438,-4.4433,-4.4454,-4.4485,-4.4502,-4.4537,-4.4564,-4.4588,-4.4594,-4.4577,-4.4577,-4.4586,-4.4587,-4.4586,-4.4585,-4.446,-4.4573,-4.4572,-4.4571,-4.457,-4.457,-4.438,-4.4407,-4.4423,-4.4453,-4.4467,-4.4484,-4.451,-4.4514,-4.454,-4.4568,-4.4563,-4.4597,-4.4612,-4.4642,-4.4652,-4.4678,-4.4662,-4.4676,-4.4679,-4.4682,-4.4685,-4.4585,-4.4683,-4.4682,-4.4682,-4.4682,-4.4682,0,-4.4472,-4.4482,-4.451,-4.4536,-4.456,-4.4545,-4.4565,-4.4585,-4.4616,-4.4632,-4.4655,-4.469,-4.4718,-4.4723,-4.4749,-4.4769,-4.4762,-4.4776,-4.4773,-4.4774,-4.4699,-4.4687,-4.4781,-4.4781,-4.4781,-4.4781,-4.4781,-4.4781,-4.4522,-4.4567,-4.4568,-4.4619,-4.4629,-4.4663,-4.4676,-4.4692,-4.4705,-4.4746,-4.4769,-4.4773,-4.4785,-4.4812,-4.4837,-4.4838,-4.4847,-4.4863,-4.4861,-4.479,-4.478,-4.477,-4.4758,-4.4866,-4.4866,-4.4933,-4.4934,-4.4934]},{"header":{"parameterUnit":"m.s-1","parameterCategory":1,"la1":30.2991,"la2":30.254,"lo1":-89.0895,"lo2":-89.0444,"dy":0.0017,"dx":0.0017,"nx":28,"ny":28,"refTime":"2024-04-23T09:00:00:Z","depth":0,"parameterNumber":3,"parameterNumberName":"V-component_of_WINDS"},"data":[0,0,0,0,0,0,0,0,0,0,0,0,0,0,0,0,0,0,0,0,0,0,0,0,0,0,0,0,0,0,0,0,0,0,0,0,0,0,0,0,0,0,0,0,0,0,0,0,0,0,0,0,0,0,0,0,0,0,1.6916,1.6916,0,1.6876,1.6876,1.6875,1.6815,1.6814,1.6813,1.6812,1.6771,1.6771,1.6771,0,0,0,0,0,0,0,0,0,0,0,0,0,1.6941,1.694,1.6916,1.6916,1.6915,1.6876,1.6876,1.6875,1.6815,1.6814,1.6813,1.6812,1.6771,1.6771,1.6771,0,0,0,0,0,0,0,0,0,0,0,0,0,1.6918,1.694,1.6916,1.6881,1.6877,1.6876,1.6876,1.6875,1.6816,1.6814,1.6812,1.6811,1.6771,1.6771,1.6771,1.6802,0,0,1.6771,1.6771,0,0,0,0,0,0,0,0,1.692,1.6917,1.6886,1.6883,1.6879,1.6849,1.6869,1.6851,1.6816,1.6839,1.6812,1.681,1.6798,1.6796,1.6792,1.68,1.6798,1.6771,1.6771,1.677,1.677,0,0,0,0,0,0,0,1.6921,1.6919,1.69,1.6886,1.6881,1.6867,1.6862,1.6866,1.6828,1.6837,1.6832,1.6828,1.6796,1.6792,1.6791,1.6798,1.6771,1.677,1.677,1.677,1.6831,1.6832,0,0,0,0,0,0,1.6928,1.6921,1.6901,1.6899,1.6896,1.6868,1.6862,1.686,1.6828,1.6821,1.683,1.6826,1.6793,1.6791,1.6789,1.6824,1.677,1.677,1.677,1.6829,1.6831,1.6833,0,0,0,0,0,0,1.6929,1.6927,1.6903,1.6909,1.6904,1.6869,1.6867,1.686,1.6856,1.6823,1.6816,1.6833,1.6792,1.6789,1.68,1.6822,1.677,1.677,1.6827,1.683,1.6832,1.6895,0,0,0,0,0,0,1.693,1.6928,1.6939,1.6909,1.6904,1.6915,1.6869,1.6861,1.6856,1.6851,1.6824,1.6818,1.679,1.68,1.6799,1.6821,1.677,1.6825,1.6828,1.6831,1.6891,1.6899,1.6907,0,0,0,0,0,1.6931,1.6958,1.694,1.6938,1.6918,1.6916,1.6913,1.6881,1.6858,1.687,1.6848,1.6818,1.6819,1.6802,1.68,1.6822,1.6823,1.6827,1.6831,1.6887,1.6898,1.6906,0,0,0,0,0,0,1.6991,1.6953,1.6933,1.6951,1.6937,1.6906,1.6919,1.6893,1.6886,1.6881,1.6841,1.6836,1.6852,1.6837,1.6819,1.6851,1.6817,1.6821,1.686,1.687,1.6878,1.6881,1.677,0,0,0,0,0,1.7007,1.7008,1.6975,1.6994,1.6988,1.6955,1.6953,1.693,1.6914,1.6908,1.6887,1.6873,1.687,1.6869,1.6864,1.6888,1.6882,1.6902,1.691,1.6917,1.6921,1.6934,1.6943,1.6845,1.6845,1.6845,0,0,1.7038,1.7018,1.7021,1.7006,1.6992,1.6996,1.6951,1.6955,1.6957,1.6908,1.6918,1.6902,1.6883,1.6901,1.6908,1.689,1.6947,1.6922,1.6927,1.6928,1.6939,1.6948,1.6957,1.6848,1.6847,1.6847,0,0,1.7099,1.7083,1.7098,1.7085,1.7065,1.7043,1.7047,1.7019,1.7007,1.7015,1.6979,1.6981,1.6976,1.6965,1.6959,1.7015,1.6988,1.7014,1.7057,1.707,1.7078,1.7084,1.7106,1.7114,1.7018,1.7018,1.7018,0,1.7141,1.7144,1.7109,1.7116,1.7111,1.7067,1.7082,1.7071,1.7051,1.7049,1.7029,1.7023,1.7007,1.7022,1.7036,1.7032,1.7036,1.7018,1.7079,1.7086,1.7091,1.7112,1.712,1.7022,1.7021,1.7021,1.7021,0,1.7198,1.72,1.7215,1.7197,1.7193,1.7204,1.7171,1.7172,1.7149,1.7129,1.7138,1.7118,1.7109,1.711,1.7088,1.7123,1.7112,1.7086,1.7051,1.7105,1.7123,1.7131,1.7027,1.7026,1.7025,1.7024,0,0,1.7296,1.7258,1.7264,1.7256,1.7231,1.7233,1.7242,1.7233,1.7235,1.7222,1.723,1.7227,1.7204,1.7196,1.7172,1.7183,1.7231,1.7156,1.7155,1.7172,1.727,1.7292,1.7301,1.7212,1.7214,1.7215,1.7273,0,1.7352,1.7367,1.7335,1.7358,1.736,1.7318,1.7327,1.7312,1.7294,1.7294,1.7273,1.7272,1.724,1.7235,1.7245,1.7224,1.7251,1.7219,1.722,1.7221,1.7228,1.731,1.7333,1.7388,1.7279,1.7281,1.7281,0,1.742,1.7412,1.7435,1.7409,1.7409,1.7417,1.7407,1.7407,1.739,1.7376,1.7368,1.734,1.7348,1.7313,1.7324,1.7303,1.7302,1.7292,1.7293,1.7293,1.7256,1.7315,1.7405,1.7414,1.7292,1.7291,1.729,0,1.7492,1.7486,1.7499,1.7493,1.7463,1.747,1.7458,1.7439,1.7436,1.7427,1.7425,1.7417,1.7414,1.7408,1.7379,1.7356,1.7394,1.7356,1.7383,1.7384,1.7395,1.7395,1.7488,1.7391,1.7391,1.7391,1.7391,0,1.7559,1.7575,1.7531,1.7539,1.7556,1.752,1.7538,1.7521,1.7505,1.751,1.7472,1.7477,1.7437,1.7438,1.7415,1.7428,1.7426,1.7416,1.741,1.742,1.7422,1.742,1.7416,1.7393,1.7392,1.7392,1.7392,0,1.7643,1.7614,1.7626,1.7596,1.7589,1.7603,1.7578,1.7585,1.7563,1.757,1.7569,1.7537,1.7536,1.7505,1.7498,1.7482,1.7506,1.7492,1.7513,1.7509,1.7538,1.7537,1.7635,1.7647,1.7541,1.7542,1.7543,0,1.7689,1.7701,1.7673,1.7673,1.7663,1.7664,1.7661,1.7625,1.7624,1.7606,1.7615,1.7611,1.7607,1.7607,1.7583,1.7578,1.7564,1.7599,1.7563,1.7574,1.7567,1.7568,1.7569,1.7607,1.7609,1.761,1.7611,0,1.7775,1.776,1.7757,1.7749,1.7747,1.7739,1.7729,1.7731,1.7692,1.7693,1.7692,1.7688,1.7681,1.7678,1.7668,1.7655,1.7628,1.7622,1.7628,1.764,1.7652,1.7648,1.7535,1.762,1.7619,1.7618,1.7618,1.7618,1.7842,1.7851,1.7833,1.7831,1.782,1.7811,1.7817,1.7796,1.7795,1.7786,1.7765,1.7768,1.7751,1.7735,1.7725,1.7727,1.7709,1.7718,1.7721,1.7724,1.7731,1.765,1.7724,1.7724,1.7724,1.7724,1.7723,0,1.7928,1.7914,1.7913,1.79,1.7899,1.7871,1.7859,1.786,1.7863,1.7849,1.7845,1.7845,1.7842,1.7817,1.7812,1.7818,1.7805,1.7818,1.7818,1.7816,1.7745,1.7741,1.7829,1.7829,1.7829,1.7829,1.7829,1.7829,1.7972,1.7986,1.7969,1.7977,1.7963,1.7965,1.7961,1.7953,1.7942,1.7943,1.7941,1.7924,1.7907,1.79,1.7896,1.7889,1.789,1.7907,1.7896,1.7831,1.7821,1.7811,1.7808,1.7907,1.7907,1.7967,1.7968,1.7968]}]]